EDT,Max TemperatureF,Mean TemperatureF,Min TemperatureF,Max Dew PointF,MeanDew PointF,Min DewpointF,Max Humidity, Mean Humidity, Min Humidity, Max Sea Level PressureIn, Mean Sea Level PressureIn, Min Sea Level PressureIn, Max VisibilityMiles, Mean VisibilityMiles, Min VisibilityMiles, Max Wind SpeedMPH, Mean Wind SpeedMPH, Max Gust SpeedMPH,PrecipitationIn, CloudCover, Events, WindDirDegrees
2013-9-1,73,71,69,72,70,68,100,96,91,29.90,29.87,29.84,10,5,0,10,7,16,0.26,8,Fog-Rain-Thunderstorm,187
2013-9-2,75,72,69,73,70,68,100,97,83,29.88,29.81,29.74,10,3,0,13,6,18,0.01,8,Fog-Rain-Thunderstorm,163
2013-9-3,75,70,66,72,69,61,100,95,83,29.83,29.77,29.70,10,4,0,10,4,18,0.45,7,Fog-Rain-Thunderstorm,205
2013-9-4,78,69,61,61,58,56,87,71,50,29.94,29.89,29.83,10,10,10,12,6,17,0.00,0,,285
2013-9-5,73,63,53,63,58,51,93,78,59,30.12,29.97,29.89,10,10,10,10,4,18,0.00,3,,354
2013-9-6,66,58,50,53,45,41,97,65,42,30.23,30.18,30.12,10,10,10,8,4,,0.00,0,,349
2013-9-7,72,62,51,57,52,46,89,68,44,30.11,30.01,29.89,10,10,10,10,3,20,0.00,0,,214
2013-9-8,78,67,55,62,54,39,87,63,40,30.08,29.86,29.77,10,10,10,16,6,25,0.00,3,,320
2013-9-9,64,56,48,52,46,40,77,65,48,30.24,30.19,30.10,10,10,10,10,5,16,0.00,0,,235
2013-9-10,71,66,62,68,62,53,96,84,70,30.18,30.13,30.07,10,9,2,14,8,25,0.09,6,Rain,200
2013-9-11,84,75,66,74,68,66,100,90,69,30.10,30.07,30.01,8,4,2,12,6,18,0.00,2,,200
2013-9-12,73,71,68,70,68,66,97,93,84,29.99,29.86,29.70,9,5,2,13,8,25,0.10,7,Rain,199
2013-9-13,75,68,62,68,65,57,100,90,68,29.75,29.65,29.60,10,6,0,9,4,,0.05,5,Fog-Rain,233
2013-9-14,69,62,55,54,52,51,87,73,59,30.06,29.91,29.77,10,10,10,10,8,,0.00,1,,315
2013-9-15,66,58,51,54,50,46,89,73,58,30.17,30.11,30.07,10,10,10,10,4,17,0.00,0,,258
2013-9-16,66,60,51,57,53,39,90,77,57,30.21,30.07,30.03,10,10,10,18,3,25,0.00,3,Rain,336
2013-9-17,60,52,44,41,37,34,82,61,38,30.40,30.33,30.24,10,10,10,15,10,28,0.00,0,,8
2013-9-18,68,56,44,53,45,40,90,67,37,30.33,30.25,30.17,10,10,10,8,2,,0.00,0,,239
2013-9-19,73,62,53,56,52,49,90,72,46,30.16,30.11,30.06,10,10,10,10,2,18,0.00,0,,222
2013-9-20,73,62,50,60,55,48,100,84,53,30.10,30.06,30.02,10,7,0,9,2,,0.00,0,Fog,195
2013-9-21,72,63,55,65,60,54,100,89,75,30.04,29.95,29.76,10,8,2,18,6,26,0.00,4,,165
2013-9-22,70,62,54,66,59,45,100,83,56,29.83,29.70,29.65,10,8,1,18,10,28,0.39,6,Rain-Thunderstorm,267
2013-9-23,63,56,48,45,41,38,77,61,48,30.01,29.92,29.83,10,10,10,17,10,25,0.00,0,,329
2013-9-24,66,55,46,47,42,39,86,64,43,30.00,29.91,29.82,10,10,10,12,9,20,0.00,0,,314
2013-9-25,68,56,46,49,47,43,93,71,51,29.97,29.91,29.88,10,10,10,12,3,17,0.00,3,,33
2013-9-26,64,57,50,50,47,45,89,70,52,30.11,30.03,29.97,10,10,10,10,4,16,0.00,5,,19
2013-9-27,64,56,48,51,50,46,93,75,60,30.26,30.18,30.10,10,10,10,14,5,18,0.00,6,,9
2013-9-28,72,60,48,57,51,47,97,80,49,30.31,30.27,30.25,10,9,2,9,2,,0.00,1,,42
2013-9-29,66,54,44,55,49,43,100,84,48,30.25,30.18,30.10,10,8,0,8,2,,0.00,2,Fog,64
2013-9-30,68,58,51,55,53,49,100,86,52,30.08,30.04,29.96,10,8,0,10,5,,0.00,4,Fog,3